Time,TemperatureF,DewpointF,PressureIn,WindDirection,WindDirectionDegrees,WindSpeedMPH,WindSpeedGustMPH,Humidity,HourlyPrecipIn,Conditions,Clouds,dailyrainin,SolarRadiationWatts/m^2,SoftwareType,DateUTC
2013-04-25 00:03:00,59.0,-99.9,-100.00,North,0,2.0,6.0,-999,0.00,,,0.05,1.000000,,2013-04-25 10:03:00,
2013-04-25 00:12:00,59.0,-99.9,-100.00,North,0,2.0,6.0,-999,0.00,,,0.05,1.000000,,2013-04-25 10:12:00,
2013-04-25 00:22:00,59.0,-99.9,-100.00,North,0,2.0,6.0,-999,0.00,,,0.05,1.000000,,2013-04-25 10:22:00,
2013-04-25 00:42:00,59.0,-99.9,-100.00,NNW,338,1.0,7.0,-999,0.00,,,0.05,1.000000,,2013-04-25 10:42:00,
2013-04-25 00:53:00,59.0,-99.9,-100.00,NNW,338,1.0,7.0,-999,0.00,,,0.05,1.000000,,2013-04-25 10:53:00,
2013-04-25 01:02:00,59.0,-99.9,-100.00,NNW,338,1.0,7.0,-999,0.00,,,0.05,1.000000,,2013-04-25 11:02:00,
2013-04-25 01:12:00,59.0,-99.9,-100.00,NNW,338,1.0,7.0,-999,0.00,,,0.05,1.000000,,2013-04-25 11:12:00,
2013-04-25 01:22:00,59.0,-99.9,-100.00,NNW,338,1.0,7.0,-999,0.00,,,0.05,1.000000,,2013-04-25 11:22:00,
2013-04-25 01:42:00,59.0,-99.9,-100.00,North,354,1.0,6.0,-999,0.00,,,0.05,1.000000,,2013-04-25 11:42:00,
2013-04-25 01:52:00,59.0,-99.9,-100.00,North,354,1.0,6.0,-999,0.00,,,0.05,1.000000,,2013-04-25 11:52:00,
2013-04-25 02:01:00,59.0,-99.9,-100.00,North,354,1.0,6.0,-999,0.00,,,0.05,1.000000,,2013-04-25 12:01:00,
2013-04-25 02:12:00,59.0,-99.9,-100.00,North,354,1.0,6.0,-999,0.00,,,0.05,1.000000,,2013-04-25 12:12:00,
2013-04-25 02:22:00,59.0,-99.9,-100.00,North,354,1.0,6.0,-999,0.00,,,0.05,1.000000,,2013-04-25 12:22:00,
2013-04-25 02:42:00,58.0,-99.9,-100.00,North,354,1.0,5.0,-999,0.00,,,0.05,0.000000,,2013-04-25 12:42:00,
2013-04-25 02:52:00,58.0,-99.9,-100.00,North,354,1.0,5.0,-999,0.00,,,0.05,0.000000,,2013-04-25 12:52:00,
2013-04-25 03:02:00,58.0,-99.9,-100.00,North,354,1.0,5.0,-999,0.00,,,0.05,0.000000,,2013-04-25 13:02:00,
2013-04-25 03:11:00,58.0,-99.9,-100.00,North,354,1.0,5.0,-999,0.00,,,0.05,0.000000,,2013-04-25 13:11:00,
2013-04-25 03:21:00,58.0,-99.9,-100.00,North,354,1.0,5.0,-999,0.00,,,0.05,0.000000,,2013-04-25 13:21:00,
2013-04-25 03:42:00,55.0,-99.9,-100.00,North,7,3.0,7.0,-999,0.00,,,-99.99,0.000000,,2013-04-25 13:42:00,
2013-04-25 03:53:00,55.0,-99.9,-100.00,North,7,3.0,7.0,-999,0.00,,,-99.99,0.000000,,2013-04-25 13:53:00,
2013-04-25 04:02:00,55.0,-99.9,-100.00,North,7,3.0,7.0,-999,0.00,,,-99.99,0.000000,,2013-04-25 14:02:00,
2013-04-25 04:11:00,55.0,-99.9,-100.00,North,7,3.0,7.0,-999,0.00,,,-99.99,0.000000,,2013-04-25 14:11:00,
2013-04-25 04:22:00,55.0,-99.9,-100.00,North,7,3.0,7.0,-999,0.00,,,-99.99,0.000000,,2013-04-25 14:22:00,
2013-04-25 04:42:00,53.0,-99.9,-100.00,North,356,3.0,6.0,-999,0.00,,,0.04,0.000000,,2013-04-25 14:42:00,
2013-04-25 04:52:00,53.0,-99.9,-100.00,North,356,3.0,6.0,-999,0.00,,,0.04,0.000000,,2013-04-25 14:52:00,
2013-04-25 05:02:00,53.0,-99.9,-100.00,North,356,3.0,6.0,-999,0.00,,,0.04,0.000000,,2013-04-25 15:02:00,
2013-04-25 05:11:00,53.0,-99.9,-100.00,North,356,3.0,6.0,-999,0.00,,,0.04,0.000000,,2013-04-25 15:11:00,
2013-04-25 05:22:00,53.0,-99.9,-100.00,North,356,3.0,6.0,-999,0.00,,,0.04,0.000000,,2013-04-25 15:22:00,
2013-04-25 05:23:00,53.0,-99.9,-100.00,North,354,3.0,8.0,-999,0.00,,,0.04,0.000000,,2013-04-25 15:23:00,
2013-04-25 05:42:00,53.0,-99.9,-100.00,North,354,3.0,8.0,-999,0.00,,,0.04,0.000000,,2013-04-25 15:42:00,
2013-04-25 05:53:00,53.0,-99.9,-100.00,North,354,3.0,8.0,-999,0.00,,,0.04,0.000000,,2013-04-25 15:53:00,
2013-04-25 06:03:00,53.0,-99.9,-100.00,North,354,3.0,8.0,-999,0.00,,,0.04,0.000000,,2013-04-25 16:03:00,
2013-04-25 06:13:00,53.0,-99.9,-100.00,North,354,3.0,8.0,-999,0.00,,,0.04,0.000000,,2013-04-25 16:13:00,
2013-04-25 06:43:00,52.0,-99.9,-100.00,North,6,2.0,5.0,-999,0.00,,,0.04,1.000000,,2013-04-25 16:43:00,
2013-04-25 06:53:00,52.0,-99.9,-100.00,North,6,2.0,5.0,-999,0.00,,,0.04,1.000000,,2013-04-25 16:53:00,
2013-04-25 07:03:00,52.0,-99.9,-100.00,North,6,2.0,5.0,-999,0.00,,,0.04,1.000000,,2013-04-25 17:03:00,
2013-04-25 07:12:00,52.0,-99.9,-100.00,North,6,2.0,5.0,-999,0.00,,,0.04,1.000000,,2013-04-25 17:12:00,
2013-04-25 07:22:00,52.0,-99.9,-100.00,North,6,2.0,5.0,-999,0.00,,,0.04,1.000000,,2013-04-25 17:22:00,
2013-04-25 07:42:00,54.0,48.0,-100.00,North,9,3.0,8.0,80,0.00,,,0.04,33.000000,,2013-04-25 17:42:00,
2013-04-25 07:53:00,54.0,48.0,-100.00,North,9,3.0,8.0,80,0.00,,,0.04,33.000000,,2013-04-25 17:53:00,
2013-04-25 08:01:00,54.0,48.0,-100.00,North,9,3.0,8.0,80,0.00,,,0.04,33.000000,,2013-04-25 18:01:00,
2013-04-25 08:11:00,54.0,48.0,-100.00,North,9,3.0,8.0,80,0.00,,,0.04,33.000000,,2013-04-25 18:11:00,
2013-04-25 08:21:00,54.0,48.0,-100.00,North,9,3.0,8.0,80,0.00,,,0.04,33.000000,,2013-04-25 18:21:00,
2013-04-25 08:43:00,61.0,50.0,-100.00,North,1,3.0,10.0,67,0.00,,,0.04,311.000000,,2013-04-25 18:43:00,
2013-04-25 08:53:00,61.0,50.0,-100.00,North,1,3.0,10.0,67,0.00,,,0.04,311.000000,,2013-04-25 18:53:00,
2013-04-25 09:01:00,61.0,50.0,-100.00,North,1,3.0,10.0,67,0.00,,,0.04,311.000000,,2013-04-25 19:01:00,
2013-04-25 09:12:00,61.0,50.0,-100.00,North,1,3.0,10.0,67,0.00,,,0.04,311.000000,,2013-04-25 19:12:00,
2013-04-25 09:21:00,61.0,50.0,-100.00,North,1,3.0,10.0,67,0.00,,,0.04,311.000000,,2013-04-25 19:21:00,
2013-04-25 09:42:00,65.0,53.0,-100.00,ENE,71,3.0,12.0,64,0.00,,,0.04,536.000000,,2013-04-25 19:42:00,
2013-04-25 09:52:00,65.0,53.0,-100.00,ENE,71,3.0,12.0,64,0.00,,,0.04,536.000000,,2013-04-25 19:52:00,
2013-04-25 10:01:00,65.0,53.0,-100.00,ENE,71,3.0,12.0,64,0.00,,,0.04,536.000000,,2013-04-25 20:01:00,
2013-04-25 10:11:00,65.0,53.0,-100.00,ENE,71,3.0,12.0,64,0.00,,,0.04,536.000000,,2013-04-25 20:11:00,
2013-04-25 10:21:00,65.0,53.0,-100.00,ENE,71,3.0,12.0,64,0.00,,,0.04,536.000000,,2013-04-25 20:21:00,
2013-04-25 10:43:00,67.0,56.0,-100.00,ENE,67,4.0,17.0,67,0.00,,,0.04,708.000000,,2013-04-25 20:43:00,
2013-04-25 10:52:00,67.0,56.0,-100.00,ENE,67,4.0,17.0,67,0.00,,,0.04,708.000000,,2013-04-25 20:52:00,
2013-04-25 11:01:00,67.0,56.0,-100.00,ENE,67,4.0,17.0,67,0.00,,,0.04,708.000000,,2013-04-25 21:01:00,
2013-04-25 11:11:00,67.0,56.0,-100.00,ENE,67,4.0,17.0,67,0.00,,,0.04,708.000000,,2013-04-25 21:11:00,
2013-04-25 11:21:00,67.0,56.0,-100.00,ENE,67,4.0,17.0,67,0.00,,,0.04,708.000000,,2013-04-25 21:21:00,
2013-04-25 11:42:00,66.0,57.0,-100.00,East,99,3.0,15.0,73,0.00,,,0.04,393.000000,,2013-04-25 21:42:00,
2013-04-25 11:53:00,66.0,57.0,-100.00,East,99,3.0,15.0,73,0.00,,,0.04,393.000000,,2013-04-25 21:53:00,
2013-04-25 12:02:00,66.0,57.0,-100.00,East,99,3.0,15.0,73,0.00,,,0.04,393.000000,,2013-04-25 22:02:00,
2013-04-25 12:12:00,66.0,57.0,-100.00,East,99,3.0,15.0,73,0.00,,,0.04,393.000000,,2013-04-25 22:12:00,
2013-04-25 12:22:00,66.0,57.0,-100.00,East,99,3.0,15.0,73,0.00,,,0.04,393.000000,,2013-04-25 22:22:00,
2013-04-25 12:42:00,65.0,56.0,-100.00,NE,53,3.0,14.0,73,0.00,,,0.04,320.000000,,2013-04-25 22:42:00,
2013-04-25 12:53:00,65.0,56.0,-100.00,NE,53,3.0,14.0,73,0.00,,,0.04,320.000000,,2013-04-25 22:53:00,
2013-04-25 13:02:00,65.0,56.0,-100.00,NE,53,3.0,14.0,73,0.00,,,0.04,320.000000,,2013-04-25 23:02:00,
2013-04-25 13:12:00,65.0,56.0,-100.00,NE,53,3.0,14.0,73,0.00,,,0.04,320.000000,,2013-04-25 23:12:00,
2013-04-25 13:21:00,65.0,56.0,-100.00,NE,53,3.0,14.0,73,0.00,,,0.04,320.000000,,2013-04-25 23:21:00,
2013-04-25 13:42:00,65.0,60.0,-100.00,East,87,4.0,19.0,84,0.00,,,0.04,302.000000,,2013-04-25 23:42:00,
2013-04-25 13:52:00,65.0,60.0,-100.00,East,87,4.0,19.0,84,0.00,,,0.04,302.000000,,2013-04-25 23:52:00,
2013-04-25 14:01:00,65.0,60.0,-100.00,East,87,4.0,19.0,84,0.00,,,0.04,302.000000,,2013-04-26 00:01:00,
2013-04-25 14:11:00,65.0,60.0,-100.00,East,87,4.0,19.0,84,0.00,,,0.04,302.000000,,2013-04-26 00:11:00,
2013-04-25 14:21:00,65.0,60.0,-100.00,East,87,4.0,19.0,84,0.00,,,0.04,302.000000,,2013-04-26 00:21:00,
2013-04-25 14:42:00,63.0,-99.9,-100.00,East,86,3.0,11.0,-999,0.00,,,0.04,185.000000,,2013-04-26 00:42:00,
2013-04-25 14:52:00,63.0,-99.9,-100.00,East,86,3.0,11.0,-999,0.00,,,0.04,185.000000,,2013-04-26 00:52:00,
2013-04-25 15:01:00,63.0,-99.9,-100.00,East,86,3.0,11.0,-999,0.00,,,0.04,185.000000,,2013-04-26 01:01:00,
2013-04-25 15:11:00,63.0,-99.9,-100.00,East,86,3.0,11.0,-999,0.00,,,0.04,185.000000,,2013-04-26 01:11:00,
2013-04-25 15:22:00,63.0,-99.9,-100.00,East,86,3.0,11.0,-999,0.00,,,0.04,185.000000,,2013-04-26 01:22:00,
2013-04-25 15:42:00,62.0,-99.9,-100.00,NE,54,3.0,12.0,-999,0.01,,,0.05,214.000000,,2013-04-26 01:42:00,
2013-04-25 15:52:00,62.0,-99.9,-100.00,NE,54,3.0,12.0,-999,0.01,,,0.05,214.000000,,2013-04-26 01:52:00,
2013-04-25 16:02:00,62.0,-99.9,-100.00,NE,54,3.0,12.0,-999,0.01,,,0.05,214.000000,,2013-04-26 02:02:00,
2013-04-25 16:12:00,62.0,-99.9,-100.00,NE,54,3.0,12.0,-999,0.01,,,0.05,214.000000,,2013-04-26 02:12:00,
2013-04-25 16:22:00,62.0,-99.9,-100.00,NE,54,3.0,12.0,-999,0.01,,,0.05,214.000000,,2013-04-26 02:22:00,
2013-04-25 16:42:00,62.0,-99.9,-100.00,ENE,73,2.0,9.0,-999,0.05,,,0.10,70.000000,,2013-04-26 02:42:00,
2013-04-25 16:52:00,62.0,-99.9,-100.00,ENE,73,2.0,9.0,-999,0.05,,,0.10,70.000000,,2013-04-26 02:52:00,
2013-04-25 17:01:00,62.0,-99.9,-100.00,ENE,73,2.0,9.0,-999,0.05,,,0.10,70.000000,,2013-04-26 03:01:00,
2013-04-25 17:11:00,62.0,-99.9,-100.00,ENE,73,2.0,9.0,-999,0.05,,,0.10,70.000000,,2013-04-26 03:11:00,
2013-04-25 17:22:00,62.0,-99.9,-100.00,ENE,73,2.0,9.0,-999,0.05,,,0.10,70.000000,,2013-04-26 03:22:00,
2013-04-25 17:23:00,60.0,-99.9,-100.00,ESE,106,3.0,10.0,-999,0.02,,,0.12,49.000000,,2013-04-26 03:23:00,
2013-04-25 17:43:00,60.0,-99.9,-100.00,ESE,106,3.0,10.0,-999,0.02,,,0.12,49.000000,,2013-04-26 03:43:00,
2013-04-25 17:53:00,60.0,-99.9,-100.00,ESE,106,3.0,10.0,-999,0.02,,,0.12,49.000000,,2013-04-26 03:53:00,
2013-04-25 18:03:00,60.0,-99.9,-100.00,ESE,106,3.0,10.0,-999,0.02,,,0.12,49.000000,,2013-04-26 04:03:00,
2013-04-25 18:12:00,60.0,-99.9,-100.00,ESE,106,3.0,10.0,-999,0.02,,,0.12,49.000000,,2013-04-26 04:12:00,
2013-04-25 18:43:00,60.0,-99.9,-100.00,NE,49,3.0,12.0,-999,0.01,,,0.13,47.000000,,2013-04-26 04:43:00,
2013-04-25 18:53:00,60.0,-99.9,-100.00,NE,49,3.0,12.0,-999,0.01,,,0.13,47.000000,,2013-04-26 04:53:00,
2013-04-25 19:02:00,60.0,-99.9,-100.00,NE,49,3.0,12.0,-999,0.01,,,0.13,47.000000,,2013-04-26 05:02:00,
2013-04-25 19:13:00,60.0,-99.9,-100.00,NE,49,3.0,12.0,-999,0.01,,,0.13,47.000000,,2013-04-26 05:13:00,
2013-04-25 19:22:00,60.0,-99.9,-100.00,NE,49,3.0,12.0,-999,0.01,,,0.13,47.000000,,2013-04-26 05:22:00,
2013-04-25 19:42:00,60.0,-99.9,-100.00,NNE,15,2.0,10.0,-999,0.00,,,0.13,10.000000,,2013-04-26 05:42:00,
2013-04-25 19:52:00,60.0,-99.9,-100.00,NNE,15,2.0,10.0,-999,0.00,,,0.13,10.000000,,2013-04-26 05:52:00,
2013-04-25 20:02:00,60.0,-99.9,-100.00,NNE,15,2.0,10.0,-999,0.00,,,0.13,10.000000,,2013-04-26 06:02:00,
2013-04-25 20:12:00,60.0,-99.9,-100.00,NNE,15,2.0,10.0,-999,0.00,,,0.13,10.000000,,2013-04-26 06:12:00,
2013-04-25 20:22:00,60.0,-99.9,-100.00,NNE,15,2.0,10.0,-999,0.00,,,0.13,10.000000,,2013-04-26 06:22:00,
2013-04-25 20:42:00,60.0,-99.9,-100.00,NNE,15,2.0,9.0,-999,0.01,,,0.11,1.000000,,2013-04-26 06:42:00,
2013-04-25 20:52:00,60.0,-99.9,-100.00,NNE,15,2.0,9.0,-999,0.01,,,0.11,1.000000,,2013-04-26 06:52:00,
2013-04-25 21:02:00,60.0,-99.9,-100.00,NNE,15,2.0,9.0,-999,0.01,,,0.11,1.000000,,2013-04-26 07:02:00,
2013-04-25 21:12:00,60.0,-99.9,-100.00,NNE,15,2.0,9.0,-999,0.01,,,0.11,1.000000,,2013-04-26 07:12:00,
2013-04-25 21:22:00,60.0,-99.9,-100.00,NNE,15,2.0,9.0,-999,0.01,,,0.11,1.000000,,2013-04-26 07:22:00,
2013-04-25 21:42:00,60.0,-99.9,-100.00,North,357,1.0,8.0,-999,0.00,,,0.10,1.000000,,2013-04-26 07:42:00,
2013-04-25 21:52:00,60.0,-99.9,-100.00,North,357,1.0,8.0,-999,0.00,,,0.10,1.000000,,2013-04-26 07:52:00,
2013-04-25 22:03:00,60.0,-99.9,-100.00,North,357,1.0,8.0,-999,0.00,,,0.10,1.000000,,2013-04-26 08:03:00,
2013-04-25 22:12:00,60.0,-99.9,-100.00,North,357,1.0,8.0,-999,0.00,,,0.10,1.000000,,2013-04-26 08:12:00,
2013-04-25 22:22:00,60.0,-99.9,-100.00,North,357,1.0,8.0,-999,0.00,,,0.10,1.000000,,2013-04-26 08:22:00,
2013-04-25 22:42:00,58.0,-99.9,-100.00,North,6,1.0,6.0,-999,0.00,,,0.10,1.000000,,2013-04-26 08:42:00,
2013-04-25 22:52:00,58.0,-99.9,-100.00,North,6,1.0,6.0,-999,0.00,,,0.10,1.000000,,2013-04-26 08:52:00,
2013-04-25 23:02:00,58.0,-99.9,-100.00,North,6,1.0,6.0,-999,0.00,,,0.10,1.000000,,2013-04-26 09:02:00,
2013-04-25 23:12:00,58.0,-99.9,-100.00,North,6,1.0,6.0,-999,0.00,,,0.10,1.000000,,2013-04-26 09:12:00,
2013-04-25 23:22:00,58.0,-99.9,-100.00,North,6,1.0,6.0,-999,0.00,,,0.10,1.000000,,2013-04-26 09:22:00,
2013-04-25 23:23:00,56.0,-99.9,-100.00,North,350,2.0,6.0,-999,0.00,,,0.10,1.000000,,2013-04-26 09:23:00,
2013-04-25 23:43:00,56.0,-99.9,-100.00,North,350,2.0,6.0,-999,0.00,,,0.10,1.000000,,2013-04-26 09:43:00,
2013-04-25 23:53:00,56.0,-99.9,-100.00,North,350,2.0,6.0,-999,0.00,,,0.10,1.000000,,2013-04-26 09:53:00,